国际通讯卫星 4-F1星 (INTELSAT 4-F1)

导读

INTELSAT 4-F1是国际通信卫星组织(ITSO)所属第四代国际通信卫星系列的首星,于1975年5月22日发射升空。该卫星由休斯空间与通信公司基于HS-312平台研制,发射质量约1414千克,设计寿命7年,配置12路C频段转发器,主要为全球提供跨洋洲际通信、广播电视传输服务,是国际卫星通信网络扩容升级的关键节点,推动了全球通信互联互通的普及发展。

Basic Information
目录编号:
7815
目录名称:
INTELSAT 4-F1
国际标识:
1975-042A
轨道中心:
EARTH
卫星名称:
国际通讯卫星 4-F1星
卫星全名:
国际通讯卫星 4-F1星 (INTELSAT 4-F1)
卫星状态:
在轨 (已飞行18653 天)
发射日期:
1975-05-22 UTC
国别 :
(ITSO)
星等 :
--
Orbit Information
数据来源 国际轨道数据 AOE轨道数据
星历时间 2026-06-16T08:59:51+0800
11小时前
查看轨道信息
2026-06-16T10:00:00+0800
10小时前
查看轨道信息
半长轴 42450.551km 42450.494km
偏心率 0.0011648 0.0011633
轨道倾角 8.256° 8.256°
近地点辐角 277.081° 277.662°
升交点赤经 306.185° 306.189°
平近点角 82.874° 97.218°
近地点 36022.967km 36022.974km
远地点 36121.861km 36121.74km
周期 1450.724分钟 1450.721分钟
每日圈数 0.992608 0.99261
Detailed Information
卫星平台:
HS-353
平衡模式:
自旋稳定
覆盖范围:
全球
运营商:
国际卫星通信公司
运营商所在国:
美国
制造商(研发单位):
休斯公司
制造商所在国:
美国
使用方式:
暂无
Satellite Introduction
从1965年4月至1984年3月,国际通信卫星组织发射了5代、6种不同性能的卫星共计35颗,除6颗卫星因运载火箭和远地点发动机故障而发射失败外,其余29颗卫星均被送到了预定的静止轨道位置。1984年8月前后,国际通信卫星组织利用部署在大西洋、太平洋、印度洋上空的15颗国际通信卫星,为遍布世界各地170多个国家或地区提供电话、电传、电报、电视和数据传输等电信业务;该卫星已退役。
2D Orbit Map
3D Orbit Map
Orbit Altitude Analysis Chart
Orbit Inclination Analysis Chart
Orbit Comprehensive Analysis Chart
View Comprehensive Chart